Facebook Twitter

Wetterstation Berlin-Dahlem (FU)

Messwerte
  Temperatur Wetter Niederschlag Luftdruck Wind
Fr, 01:00 Uhr 14° - 1018 hPa 11 km/h O
Fr, 00:00 Uhr 15° - 1017 hPa 11 km/h O
Do, 23:00 Uhr 16° 0 mm 1017 hPa 11 km/h O
Do, 22:00 Uhr 17° - 1017 hPa 7 km/h N
Do, 21:00 Uhr 20° - 1016 hPa 7 km/h NW
Do, 20:00 Uhr 22° 0 mm 1015 hPa 11 km/h W
Do, 19:00 Uhr 22° - 1015 hPa 11 km/h NW
Do, 18:00 Uhr 23° - 1015 hPa 14 km/h W
Do, 17:00 Uhr 23° 0 mm 1014 hPa 14 km/h NW
Do, 16:00 Uhr 23° - 1014 hPa 14 km/h W
Do, 15:00 Uhr 23° - 1014 hPa 11 km/h NW
Do, 14:00 Uhr 22° 0 mm 1014 hPa 18 km/h W
Do, 13:00 Uhr 21° - 1014 hPa 14 km/h W
Do, 12:00 Uhr 20° - 1014 hPa 18 km/h W
Do, 11:00 Uhr 19° 0 mm 1014 hPa 18 km/h W
Do, 10:00 Uhr 18° - 1013 hPa 11 km/h W
Do, 09:00 Uhr 17° - 1013 hPa 11 km/h W
Do, 08:00 Uhr 16° 0.1 mm 1013 hPa 14 km/h W
Do, 07:00 Uhr 15° - 1013 hPa 11 km/h W
Do, 06:00 Uhr 15° - 1012 hPa 14 km/h W

Alle Zeitangaben MESZ